• In Österreich
  • Länderverzeichnis
  • Für 7 Tage
  • Wassertemperatur
  • Satellitenkarten
  • Wetterkarte
  • News
  • Widgets
  • user-avatar
    Anmelden

    Stündliche Wetter Pinsk

    Heute, 22 April, Sonntag

    Zeit Temperatur Niederschläge Wind Luftdruck Luftfeuchtigkeit
    00:00 +10°C° 0 mm 4 m/S 748 mmHg 61%
    01:00 +8°C° 0 mm 4 m/S 748 mmHg 65%
    02:00 +8°C° 0 mm 3 m/S 748 mmHg 71%
    03:00 +7°C° 0 mm 3 m/S 748 mmHg 73%
    04:00 +5°C° 0 mm 3 m/S 748 mmHg 75%
    05:00 +5°C° 0 mm 3 m/S 748 mmHg 78%
    06:00 +7°C° 0 mm 3 m/S 748 mmHg 73%
    07:00 +8°C° 0 mm 3 m/S 748 mmHg 68%
    08:00 +10°C° 0 mm 3 m/S 748 mmHg 63%
    09:00 +12°C° 0 mm 4 m/S 748 mmHg 55%
    10:00 +14°C° 0 mm 5 m/S 748 mmHg 48%
    11:00 +15°C° 0 mm 5 m/S 748 mmHg 40%
    12:00 +16°C° 0 mm 6 m/S 748 mmHg 39%
    13:00 +17°C° 0 mm 6 m/S 747 mmHg 38%
    14:00 +17°C° 0 mm 6 m/S 747 mmHg 37%
    15:00 +17°C° 0 mm 6 m/S 747 mmHg 39%
    16:00 +17°C° 0 mm 6 m/S 747 mmHg 40%
    17:00 +17°C° 0 mm 5 m/S 747 mmHg 42%
    18:00 +15°C° 0 mm 4 m/S 747 mmHg 48%
    19:00 +13°C° 0 mm 3 m/S 747 mmHg 54%
    20:00 +12°C° 0 mm 3 m/S 747 mmHg 60%
    21:00 +12°C° 0 mm 2 m/S 747 mmHg 63%
    22:00 +10°C° 0 mm 2 m/S 748 mmHg 66%
    23:00 +9°C° 0 mm 2 m/S 748 mmHg 69%

    Morgen, 23 April, Montag

    Zeit Temperatur Niederschläge Wind Luftdruck Luftfeuchtigkeit
    00:00 +8°C° 0 mm 2 m/S 748 mmHg 71%
    01:00 +8°C° 0 mm 2 m/S 748 mmHg 73%
    02:00 +7°C° 0 mm 2 m/S 749 mmHg 76%
    03:00 +7°C° 0 mm 2 m/S 749 mmHg 76%
    04:00 +7°C° 0 mm 1 m/S 749 mmHg 77%
    05:00 +7°C° 0 mm 1 m/S 749 mmHg 78%
    06:00 +8°C° 0 mm 1 m/S 749 mmHg 71%
    07:00 +10°C° 0 mm 1 m/S 749 mmHg 64%
    08:00 +12°C° 0 mm 1 m/S 749 mmHg 57%
    09:00 +13°C° 0 mm 1 m/S 749 mmHg 53%
    10:00 +15°C° 0 mm 1 m/S 749 mmHg 48%
    11:00 +18°C° 0 mm 1 m/S 749 mmHg 43%
    12:00 +19°C° 0 mm 1 m/S 749 mmHg 40%
    13:00 +19°C° 0 mm 1 m/S 749 mmHg 37%
    14:00 +20°C° 0 mm 1 m/S 748 mmHg 35%
    15:00 +20°C° 0 mm 1 m/S 748 mmHg 36%
    16:00 +19°C° 0 mm 1 m/S 747 mmHg 36%
    17:00 +18°C° 0 mm 2 m/S 747 mmHg 37%
    18:00 +18°C° 0 mm 1 m/S 747 mmHg 41%
    19:00 +16°C° 0 mm 1 m/S 747 mmHg 45%
    20:00 +14°C° 0 mm 1 m/S 746 mmHg 49%
    21:00 +14°C° 0,1 mm 1 m/S 746 mmHg 53%
    22:00 +14°C° 0,1 mm 2 m/S 746 mmHg 56%
    23:00 +13°C° 0,1 mm 2 m/S 746 mmHg 59%

    übermorgen, 24 April, Dienstag

    Zeit Temperatur Niederschläge Wind Luftdruck Luftfeuchtigkeit
    00:00 +13°C° 0,2 mm 2 m/S 745 mmHg 64%
    01:00 +12°C° 0,2 mm 2 m/S 745 mmHg 70%
    02:00 +12°C° 0,2 mm 2 m/S 745 mmHg 75%
    03:00 +12°C° 0 mm 2 m/S 745 mmHg 80%
    04:00 +10°C° 0 mm 3 m/S 745 mmHg 84%
    05:00 +10°C° 0 mm 3 m/S 745 mmHg 88%
    06:00 +11°C° 0 mm 4 m/S 745 mmHg 85%
    07:00 +10°C° 0 mm 5 m/S 745 mmHg 81%
    08:00 +11°C° 0 mm 6 m/S 746 mmHg 77%
    09:00 +13°C° 0 mm 6 m/S 746 mmHg 70%
    10:00 +14°C° 0 mm 6 m/S 746 mmHg 62%
    11:00 +15°C° 0 mm 7 m/S 747 mmHg 55%
    12:00 +15°C° 0 mm 7 m/S 747 mmHg 52%
    13:00 +16°C° 0 mm 7 m/S 747 mmHg 50%
    14:00 +16°C° 0 mm 6 m/S 747 mmHg 48%
    15:00 +16°C° 0 mm 6 m/S 747 mmHg 50%
    16:00 +16°C° 0 mm 6 m/S 747 mmHg 51%
    17:00 +15°C° 0 mm 5 m/S 747 mmHg 53%
    18:00 +14°C° 0 mm 4 m/S 747 mmHg 59%
    19:00 +13°C° 0 mm 3 m/S 747 mmHg 65%
    20:00 +12°C° 0 mm 2 m/S 747 mmHg 71%
    21:00 +12°C° 0 mm 2 m/S 748 mmHg 73%
    22:00 +10°C° 0 mm 2 m/S 748 mmHg 75%
    23:00 +10°C° 0 mm 2 m/S 748 mmHg 76%

    25 April, Mittwoch

    Zeit Temperatur Niederschläge Wind Luftdruck Luftfeuchtigkeit
    00:00 +10°C° 0 mm 2 m/S 748 mmHg 76%
    01:00 +10°C° 0 mm 2 m/S 747 mmHg 76%
    02:00 +10°C° 0 mm 3 m/S 747 mmHg 76%
    03:00 +10°C° 0,1 mm 3 m/S 747 mmHg 77%
    04:00 +11°C° 0,1 mm 3 m/S 747 mmHg 77%
    05:00 +11°C° 0,1 mm 4 m/S 747 mmHg 77%
    06:00 +12°C° 0 mm 4 m/S 747 mmHg 74%
    07:00 +13°C° 0 mm 5 m/S 747 mmHg 70%
    08:00 +14°C° 0 mm 6 m/S 747 mmHg 67%
    09:00 +15°C° 0 mm 6 m/S 747 mmHg 64%
    10:00 +17°C° 0 mm 6 m/S 747 mmHg 61%
    11:00 +19°C° 0 mm 6 m/S 747 mmHg 58%
    12:00 +19°C° 0,1 mm 6 m/S 746 mmHg 57%
    13:00 +20°C° 0,1 mm 6 m/S 746 mmHg 57%
    14:00 +20°C° 0,1 mm 6 m/S 746 mmHg 56%
    15:00 +20°C° 0,2 mm 5 m/S 745 mmHg 57%
    16:00 +20°C° 0,2 mm 4 m/S 745 mmHg 57%
    17:00 +20°C° 0,2 mm 3 m/S 744 mmHg 58%
    18:00 +19°C° 0,1 mm 3 m/S 744 mmHg 62%
    19:00 +18°C° 0,1 mm 3 m/S 743 mmHg 66%
    20:00 +17°C° 0,1 mm 2 m/S 743 mmHg 70%
    21:00 +17°C° 0 mm 3 m/S 743 mmHg 71%
    22:00 +17°C° 0 mm 4 m/S 742 mmHg 72%
    23:00 +16°C° 0 mm 5 m/S 742 mmHg 73%

    26 April, Donnerstag

    Zeit Temperatur Niederschläge Wind Luftdruck Luftfeuchtigkeit
    00:00 +15°C° 0 mm 4 m/S 742 mmHg 75%
    01:00 +15°C° 0 mm 4 m/S 741 mmHg 77%
    02:00 +14°C° 0 mm 4 m/S 741 mmHg 79%
    03:00 +14°C° 0,1 mm 4 m/S 741 mmHg 81%
    04:00 +14°C° 0,1 mm 4 m/S 742 mmHg 83%
    05:00 +13°C° 0,1 mm 5 m/S 742 mmHg 85%
    06:00 +13°C° 0 mm 5 m/S 743 mmHg 82%
    07:00 +13°C° 0 mm 6 m/S 744 mmHg 78%
    08:00 +13°C° 0 mm 6 m/S 744 mmHg 75%
    09:00 +13°C° 0 mm 6 m/S 745 mmHg 72%
    10:00 +13°C° 0 mm 5 m/S 746 mmHg 69%
    11:00 +13°C° 0 mm 5 m/S 746 mmHg 66%
    12:00 +14°C° 0 mm 4 m/S 747 mmHg 62%
    13:00 +14°C° 0 mm 4 m/S 747 mmHg 59%
    14:00 +15°C° 0 mm 4 m/S 747 mmHg 55%
    15:00 +16°C° 0 mm 3 m/S 747 mmHg 54%
    16:00 +17°C° 0 mm 3 m/S 747 mmHg 53%
    17:00 +17°C° 0 mm 3 m/S 747 mmHg 52%
    18:00 +15°C° 0 mm 2 m/S 747 mmHg 58%
    19:00 +14°C° 0 mm 1 m/S 747 mmHg 64%
    20:00 +12°C° 0 mm 1 m/S 747 mmHg 69%
    21:00 +12°C° 0 mm 1 m/S 747 mmHg 70%
    22:00 +12°C° 0 mm 1 m/S 747 mmHg 70%
    23:00 +12°C° 0 mm 2 m/S 747 mmHg 70%

    27 April, Freitag

    Zeit Temperatur Niederschläge Wind Luftdruck Luftfeuchtigkeit
    00:00 +12°C° 0,2 mm 2 m/S 747 mmHg 73%
    01:00 +12°C° 0,2 mm 2 m/S 747 mmHg 77%
    02:00 +11°C° 0,2 mm 3 m/S 747 mmHg 80%
    03:00 +12°C° 0,5 mm 2 m/S 746 mmHg 84%
    04:00 +10°C° 0,5 mm 2 m/S 746 mmHg 87%
    05:00 +11°C° 0,5 mm 1 m/S 746 mmHg 91%
    06:00 +11°C° 1,8 mm 1 m/S 746 mmHg 92%
    07:00 +11°C° 1,8 mm 1 m/S 746 mmHg 93%
    08:00 +11°C° 1,8 mm 1 m/S 746 mmHg 95%
    09:00 +10°C° 1,5 mm 2 m/S 746 mmHg 93%
    10:00 +10°C° 1,5 mm 2 m/S 746 mmHg 92%
    11:00 +10°C° 1,5 mm 3 m/S 746 mmHg 91%
    12:00 +11°C° 0,4 mm 3 m/S 747 mmHg 88%
    13:00 +11°C° 0,4 mm 3 m/S 747 mmHg 84%
    14:00 +12°C° 0,4 mm 3 m/S 747 mmHg 81%
    15:00 +12°C° 0,1 mm 3 m/S 747 mmHg 77%
    16:00 +12°C° 0,1 mm 3 m/S 747 mmHg 72%
    17:00 +13°C° 0,1 mm 3 m/S 747 mmHg 67%
    18:00 +13°C° 0 mm 2 m/S 747 mmHg 71%
    19:00 +10°C° 0 mm 2 m/S 748 mmHg 75%
    20:00 +10°C° 0 mm 1 m/S 748 mmHg 78%
    21:00 +8°C° 0 mm 2 m/S 748 mmHg 80%
    22:00 +8°C° 0 mm 2 m/S 748 mmHg 81%
    23:00 +7°C° 0 mm 2 m/S 749 mmHg 82%
    Mehr zeigen